TimeCDT,TemperatureF,Dew PointF,Humidity,Sea Level PressureIn,VisibilityMPH,Wind Direction,Wind SpeedMPH,Gust SpeedMPH,PrecipitationIn,Events,Conditions,WindDirDegrees,DateUTC
12:53 AM,45.0,42.1,90,29.76,10.0,WSW,4.6,-,N/A,,Overcast,250,2012-10-20 05:53:00
1:23 AM,42.8,39.2,87,29.73,5.0,Calm,Calm,-,N/A,,Mostly Cloudy,0,2012-10-20 06:23:00
1:43 AM,42.8,41.0,93,29.73,7.0,Calm,Calm,-,N/A,,Mostly Cloudy,0,2012-10-20 06:43:00
1:53 AM,44.1,41.0,89,29.75,7.0,Calm,Calm,-,N/A,,Overcast,0,2012-10-20 06:53:00
2:22 AM,44.6,42.8,93,29.73,1.5,Calm,Calm,-,N/A,,Overcast,0,2012-10-20 07:22:00
2:24 AM,44.6,42.8,93,29.73,0.8,Calm,Calm,-,N/A,,Overcast,0,2012-10-20 07:24:00
2:34 AM,44.6,42.8,93,29.73,0.2,Calm,Calm,-,N/A,Fog,Fog,0,2012-10-20 07:34:00
2:53 AM,43.0,41.0,93,29.76,0.2,Calm,Calm,-,N/A,Fog,Fog,0,2012-10-20 07:53:00
3:53 AM,42.1,39.9,92,29.77,0.2,Calm,Calm,-,N/A,Fog,Fog,0,2012-10-20 08:53:00
4:17 AM,42.8,39.2,87,29.74,0.8,ESE,3.5,-,0.01,,Mist,110,2012-10-20 09:17:00
4:28 AM,42.8,39.2,87,29.75,1.0,Calm,Calm,-,0.01,,Overcast,0,2012-10-20 09:28:00
4:35 AM,42.8,39.2,87,29.74,0.8,Calm,Calm,-,0.01,,Overcast,0,2012-10-20 09:35:00
4:45 AM,41.0,39.2,93,29.75,1.5,Calm,Calm,-,0.01,,Overcast,0,2012-10-20 09:45:00
4:53 AM,41.0,39.0,93,29.77,1.0,Calm,Calm,-,0.01,,Overcast,0,2012-10-20 09:53:00
5:22 AM,41.0,39.2,93,29.75,2.0,Calm,Calm,-,N/A,,Overcast,0,2012-10-20 10:22:00
5:35 AM,41.0,39.2,93,29.75,3.0,Calm,Calm,-,N/A,,Overcast,0,2012-10-20 10:35:00
5:42 AM,41.0,39.2,93,29.75,2.5,Calm,Calm,-,N/A,,Overcast,0,2012-10-20 10:42:00
5:49 AM,41.0,39.2,93,29.75,5.0,Calm,Calm,-,N/A,,Overcast,0,2012-10-20 10:49:00
5:53 AM,41.0,39.0,93,29.78,7.0,Calm,Calm,-,N/A,,Overcast,0,2012-10-20 10:53:00
6:53 AM,41.0,39.0,93,29.78,10.0,South,3.5,-,N/A,,Overcast,190,2012-10-20 11:53:00
7:53 AM,41.0,37.9,89,29.79,10.0,Calm,Calm,-,N/A,,Overcast,0,2012-10-20 12:53:00
8:53 AM,42.1,37.9,85,29.79,10.0,Calm,Calm,-,N/A,,Overcast,0,2012-10-20 13:53:00
9:53 AM,44.1,37.9,79,29.80,10.0,South,6.9,-,N/A,,Overcast,180,2012-10-20 14:53:00
10:53 AM,46.0,39.0,76,29.79,10.0,South,8.1,-,N/A,,Overcast,170,2012-10-20 15:53:00
11:53 AM,48.0,39.9,74,29.80,10.0,South,9.2,-,N/A,,Overcast,190,2012-10-20 16:53:00
12:05 PM,48.2,41.0,76,29.78,10.0,South,8.1,-,N/A,,Overcast,190,2012-10-20 17:05:00
12:42 PM,51.8,41.0,67,29.76,10.0,South,11.5,-,N/A,,Overcast,180,2012-10-20 17:42:00
1:53 PM,52.0,41.0,66,29.78,10.0,SSW,12.7,18.4,N/A,,Overcast,200,2012-10-20 18:53:00
2:53 PM,51.1,41.0,68,29.77,10.0,SSE,11.5,-,N/A,,Overcast,160,2012-10-20 19:53:00
3:53 PM,52.0,41.0,66,29.76,10.0,South,9.2,-,N/A,,Overcast,180,2012-10-20 20:53:00
4:53 PM,51.1,41.0,68,29.77,10.0,South,9.2,-,N/A,,Overcast,170,2012-10-20 21:53:00
5:53 PM,51.1,41.0,68,29.78,10.0,South,9.2,-,N/A,,Overcast,170,2012-10-20 22:53:00
6:53 PM,50.0,41.0,71,29.77,10.0,South,8.1,-,N/A,,Overcast,170,2012-10-20 23:53:00
7:53 PM,48.0,41.0,77,29.79,10.0,South,11.5,-,N/A,,Overcast,180,2012-10-21 00:53:00
8:53 PM,48.0,41.0,77,29.80,10.0,South,11.5,-,N/A,,Overcast,180,2012-10-21 01:53:00
9:53 PM,48.0,41.0,77,29.79,10.0,South,8.1,-,N/A,,Overcast,180,2012-10-21 02:53:00
10:23 PM,48.2,41.0,76,29.76,10.0,South,10.4,-,N/A,,Overcast,170,2012-10-21 03:23:00
10:53 PM,46.9,41.0,80,29.80,10.0,South,9.2,-,N/A,,Scattered Clouds,180,2012-10-21 03:53:00
11:53 PM,46.9,41.0,80,29.80,10.0,SSE,5.8,-,N/A,,Clear,160,2012-10-21 04:53:00